Weather History for Wenatchee, WA

Change the Weather History Date:

Monday, January 7, 2013

  Actual Average Record
Temperature  
Mean Temperature 37 °F 26 °F  
Max Temperature 47 °F 32 °F 54 °F (1983)
Min Temperature 26 °F 21 °F -10 °F (1993)
Degree Days  
Heating Degree Days 28 39  
Month to date heating degree days 268 274  
Since 1 July heating degree days 2435 3372  
Cooling Degree Days 0 0  
Month to date cooling degree days 0 0  
Year to date cooling degree days 0 0  
Moisture  
Dew Point 26 °F    
Average Humidity 79    
Maximum Humidity 100    
Minimum Humidity 58    
Precipitation  
Precipitation 0.07 in 0.07 in 0.29 in (1975)
Month to date precipitation 0.09 0.50  
Year to date precipitation 0.09 0.50  
Snow  
Snow 0.00 in 0.60 in - ()
Month to date snowfall 4.3  
Since 1 July snowfall 29.2  
Snow Depth -    
Sea Level Pressure  
Sea Level Pressure 29.94 in    
Wind  
Wind Speed 5 mph (NNW)    
Max Wind Speed 28 mph    
Max Gust Speed 37 mph    
Visibility 4 miles    
Events Fog , Snow    
T = Trace of Precipitation, MM = Missing Value Source: NWS Daily Summary

Daily Weather History Graph

Daily Weather History Graph

Search for Another Location

Airport:

Trip Planner

Search our weather history database for the weather conditions in past years. The results will help you decide how hot, cold, wet, or windy it might be!

Date:

Astronomy

Jan. 07, 2013 Rise Set
Actual Time 7:47 AM PST 4:27 PM PST
Civil Twilight 7:12 AM PST 5:02 PM PST
Nautical Twilight 6:33 AM PST 5:41 PM PST
Astronomical Twilight 5:56 AM PST 6:18 PM PST
Moon 3:12 AM PST (1/7) 12:46 PM PST (1/7)
Length of Visible Light 9h 50m
Length of Day
8h 40m
Waning Crescent, 21% of the Moon is Illuminated
Jan 7
Waning Crescent
Jan 11
New
Jan 18
First Quarter
Jan 26
Full
Feb 3
Last Quarter

Hourly Weather History & Observations

Time (PST) Temp. Windchill Dew Point Humidity Pressure Visibility Wind Dir Wind Speed Gust Speed Precip Events Conditions
12:42 AM 28.4 °F - 26.6 °F 93% 30.04 in 2.0 mi Calm Calm - N/A   Overcast
12:55 AM 27.0 °F - 25.0 °F 92% 30.09 in 2.5 mi Calm Calm - N/A   Overcast
1:22 AM 28.4 °F - 26.6 °F 93% 30.03 in 3.0 mi Calm Calm - N/A   Overcast
1:31 AM 28.4 °F - 26.6 °F 93% 30.03 in 2.5 mi Calm Calm - N/A   Overcast
1:55 AM 28.0 °F - 26.1 °F 92% 30.07 in 3.0 mi Calm Calm - N/A   Overcast
2:03 AM 28.4 °F - 26.6 °F 93% 30.03 in 2.5 mi Calm Calm - N/A   Overcast
2:55 AM 28.0 °F - 25.0 °F 88% 30.07 in 1.8 mi Calm Calm - 0.00 in Snow Light Snow
4:55 AM 27.0 °F - 25.0 °F 92% 30.01 in 2.0 mi Calm Calm - 0.00 in Snow Light Snow
5:10 AM 26.6 °F - 24.8 °F 93% 29.97 in 1.8 mi Calm Calm - 0.00 in Snow Light Snow
5:29 AM 26.6 °F - 24.8 °F 93% 29.96 in 2.0 mi Calm Calm - 0.01 in Snow Light Snow
5:36 AM 26.6 °F - 24.8 °F 93% 29.96 in 2.5 mi Calm Calm - 0.01 in Snow Light Snow
5:55 AM 27.0 °F - 24.1 °F 89% 29.98 in 1.8 mi Calm Calm - 0.01 in Snow Light Snow
6:02 AM 26.6 °F - 24.8 °F 93% 29.94 in 1.8 mi Calm Calm - 0.00 in Snow Light Snow
6:09 AM 26.6 °F - 24.8 °F 93% 29.94 in 2.0 mi Calm Calm - 0.00 in Snow Light Snow
6:30 AM 26.6 °F - 24.8 °F 93% 29.93 in 3.0 mi Calm Calm - 0.00 in Snow Light Snow
6:45 AM 26.6 °F 22.6 °F 24.8 °F 93% 29.94 in 2.5 mi NW 3.5 mph - 0.00 in Snow Light Snow
7:02 AM 26.6 °F 22.6 °F 24.8 °F 93% 29.94 in 1.8 mi WNW 3.5 mph - 0.00 in Snow Light Snow
7:23 AM 26.6 °F 22.6 °F 24.8 °F 93% 29.93 in 0.8 mi NW 3.5 mph - 0.02 in Snow Light Snow
7:32 AM 26.6 °F 22.6 °F 24.8 °F 93% 29.92 in 1.0 mi WNW 3.5 mph - 0.02 in Snow Light Snow
7:55 AM 27.0 °F - 25.0 °F 92% 29.96 in 1.2 mi Calm Calm - 0.04 in Snow Light Snow
8:05 AM 26.6 °F - 24.8 °F 93% 29.91 in 0.5 mi Calm Calm - 0.01 in Fog , Snow Snow
8:20 AM 26.6 °F - 24.8 °F 93% 29.90 in 1.0 mi Calm Calm - 0.02 in Snow Light Snow
8:36 AM 26.6 °F - 24.8 °F 93% 29.90 in 1.2 mi Calm Calm - 0.02 in Snow Light Snow
8:46 AM 26.6 °F - 24.8 °F 93% 29.91 in 2.0 mi Calm Calm - 0.02 in Snow Light Snow
8:55 AM 27.0 °F - 26.1 °F 96% 29.94 in 2.0 mi Calm Calm - 0.02 in Snow Light Snow
8:57 AM 26.6 °F - 24.8 °F 93% 29.90 in 2.0 mi Calm Calm - 0.00 in Snow Light Snow
9:08 AM 26.6 °F - 24.8 °F 93% 29.89 in 2.0 mi Calm Calm - 0.00 in   Overcast
9:16 AM 26.6 °F - 24.8 °F 93% 29.90 in 2.0 mi Calm Calm - 0.00 in   Overcast
9:35 AM 26.6 °F - 24.8 °F 93% 29.89 in 1.2 mi Calm Calm - 0.00 in   Overcast
9:43 AM 26.6 °F - 26.6 °F 100% 29.89 in 0.5 mi Calm Calm - 0.00 in Fog Light Freezing Fog
9:55 AM 27.0 °F - 26.1 °F 96% 29.93 in 1.0 mi Calm Calm - 0.00 in   Overcast
10:10 AM 28.4 °F - 26.6 °F 93% 29.88 in 2.0 mi Calm Calm - N/A   Overcast
10:31 AM 28.4 °F - 24.8 °F 86% 29.88 in 1.2 mi Calm Calm - N/A   Overcast
11:09 AM 28.4 °F - 24.8 °F 86% 29.88 in 6.0 mi Calm Calm - N/A   Mostly Cloudy
11:55 AM 28.0 °F - 24.1 °F 85% 29.89 in 6.0 mi Calm Calm - N/A   Overcast
12:26 PM 28.4 °F - 24.8 °F 86% 29.84 in 7.0 mi Calm Calm - N/A   Scattered Clouds
12:50 PM 28.4 °F - 24.8 °F 86% 29.82 in 2.0 mi Calm Calm - N/A   Clear
12:55 PM 30.0 °F - 25.0 °F 82% 29.86 in 7.0 mi Calm Calm - N/A   Clear
1:55 PM 30.0 °F 26.5 °F 24.1 °F 79% 29.86 in 9.0 mi ESE 3.5 mph - N/A   Clear
3:55 PM 30.0 °F 23.2 °F 24.1 °F 79% 29.85 in 10.0 mi East 6.9 mph - N/A   Clear
4:55 PM 30.0 °F 22.4 °F 25.0 °F 82% 29.87 in 10.0 mi ESE 8.1 mph - N/A   Clear
5:55 PM 41.0 °F 32.5 °F 30.9 °F 67% 29.87 in 10.0 mi WNW 17.3 mph 24.2 mph N/A   Clear
6:55 PM 44.1 °F 37.1 °F 32.0 °F 63% 29.88 in 10.0 mi NNW 15.0 mph 36.8 mph N/A   Clear
7:55 PM 44.1 °F 38.1 °F 30.9 °F 60% 29.90 in 10.0 mi NW 11.5 mph 20.7 mph N/A   Clear
8:55 PM 43.0 °F 34.8 °F 32.0 °F 65% 29.93 in 10.0 mi NNW 18.4 mph 29.9 mph N/A   Clear
9:55 PM 42.1 °F 33.9 °F 30.9 °F 65% 29.96 in 10.0 mi NW 17.3 mph 25.3 mph N/A   Clear
10:55 PM 39.9 °F 33.9 °F 30.9 °F 70% 30.01 in 10.0 mi NW 9.2 mph - N/A   Clear
11:55 PM 34.0 °F 28.8 °F 28.0 °F 79% 30.05 in 10.0 mi East 5.8 mph - N/A   Clear